Wind_Speed
18 18 17 16 16 17 17 18 19 21 26 30 32 36 38 38 39 39 39 41 42 42 44 45 44 45 46 46 47 46 44 43 42 40 39 37 36 34 34 34 35 37 37 36 36 36 35 33 32 31 29 29 29 29 27 26 25 25 25 25 25 24 24
17 17 17 17 16 18 19 19 19 22 26 29 32 35 37 38 39 39 39 41 43 43 44 45 45 45 46 47 46 45 44 43 42 40 38 37 36 35 35 35 36 38 38 38 37 36 34 33 32 32 31 30 30 29 28 27 26 26 27 27 26 26 25
16 17 17 17 17 18 19 18 19 23 27 29 31 34 36 39 41 42 42 41 43 43 43 44 45 46 46 46 45 44 44 44 42 41 39 38 37 36 36 35 37 38 38 38 37 35 34 34 33 33 32 32 31 30 29 28 28 28 28 28 27 27 27
18 19 19 19 19 18 19 18 18 23 28 31 34 36 40 43 44 43 43 43 44 43 43 45 45 45 45 45 45 44 44 44 43 42 41 39 38 37 36 36 37 37 37 37 37 36 35 34 34 34 34 33 33 32 31 30 30 30 30 29 29 28 28
19 19 17 16 17 17 17 18 18 22 28 32 35 38 41 43 42 41 42 43 44 45 46 47 46 46 46 46 45 44 45 45 44 43 42 40 38 37 38 38 38 38 37 37 37 36 35 35 35 35 35 35 34 33 33 32 32 31 32 32 31 30 30
17 17 16 16 17 17 18 18 19 25 30 33 35 38 39 39 38 40 41 42 42 43 44 44 45 45 44 45 45 43 43 43 43 43 42 40 39 38 39 40 40 38 37 37 37 37 37 36 36 36 37 37 36 35 34 34 33 33 34 34 33 33 31
16 16 17 17 17 17 19 19 20 26 32 34 35 36 35 35 37 39 39 40 41 41 41 43 43 44 43 44 44 43 43 42 42 42 41 40 39 40 41 41 40 39 38 37 37 37 37 37 37 37 37 37 37 37 36 35 35 35 35 36 35 34 32
17 17 17 18 18 18 18 18 18 23 28 29 29 29 31 33 36 37 38 39 40 40 41 43 44 44 44 43 43 43 43 42 41 41 40 40 39 40 41 41 40 40 38 37 38 37 38 38 38 38 38 38 38 38 37 37 36 35 35 36 36 35 33
16 16 17 17 18 17 17 17 17 20 23 25 26 28 31 33 34 36 39 40 39 40 42 43 43 44 44 43 43 43 43 41 41 41 40 41 40 41 42 42 41 39 38 38 38 37 38 38 38 38 38 38 38 38 38 38 37 36 36 37 37 36 36
14 14 15 16 16 16 16 16 15 15 15 18 23 27 30 32 34 36 38 38 39 41 43 42 41 42 43 43 42 42 42 41 41 40 40 41 41 42 43 42 40 39 39 39 37 37 37 37 38 38 38 38 38 38 38 38 37 36 37 38 38 38 38
12 13 13 14 15 15 16 15 13 13 12 14 20 26 29 32 34 34 36 38 40 41 41 40 40 41 42 42 41 40 41 41 41 40 41 42 42 43 43 42 40 39 39 38 37 36 36 36 37 37 38 39 39 39 38 38 37 37 37 38 39 39 39
10 10 12 14 15 16 16 14 13 14 14 15 20 25 28 31 33 34 36 39 40 40 39 40 40 41 41 41 40 40 40 41 41 42 42 42 42 42 43 42 40 39 38 38 37 36 36 36 37 38 38 39 39 39 38 37 37 38 39 39 40 40 39
9 9 12 14 15 15 15 13 14 16 16 16 21 26 28 30 33 34 35 37 39 39 39 39 40 41 41 41 40 40 41 42 43 42 42 43 42 42 41 40 40 39 38 38 37 36 36 36 37 38 38 38 38 38 37 36 37 38 39 40 40 40 40
10 11 11 11 11 13 14 15 15 16 16 16 19 24 27 30 33 35 35 36 37 38 38 39 40 41 41 41 40 41 42 44 43 43 42 42 41 40 39 39 39 39 38 37 37 37 37 37 37 36 36 36 36 36 36 36 38 39 40 40 40 40 39
11 12 13 12 12 13 14 16 16 15 16 16 17 21 25 27 30 32 33 34 36 37 39 40 40 41 40 40 41 43 44 43 42 41 41 39 38 39 39 38 38 37 36 36 37 37 36 36 35 34 34 34 34 35 35 37 39 40 40 40 39 39 38
12 13 14 15 16 16 16 17 17 16 17 16 16 19 23 25 28 31 32 34 35 37 39 40 41 41 40 40 43 44 42 41 41 40 39 38 38 38 38 37 36 35 36 36 36 35 34 34 33 33 34 34 34 34 35 38 40 41 41 41 40 38 37
12 13 14 14 14 15 16 16 16 15 15 16 17 20 24 26 29 32 32 33 36 38 40 40 41 41 41 43 44 42 41 41 40 39 39 39 38 37 37 36 35 34 35 35 34 34 33 33 33 34 34 35 35 35 37 39 41 41 41 40 40 38 37
11 12 13 13 13 13 14 15 15 16 16 16 17 21 25 27 28 29 30 33 36 39 39 39 40 40 42 42 41 39 40 40 40 39 39 39 38 37 36 35 34 34 34 34 34 33 33 33 34 35 35 35 36 36 38 40 41 40 40 40 39 39 38
12 13 12 12 12 13 15 14 14 16 17 17 20 26 31 32 30 31 34 37 38 36 36 37 39 39 40 40 38 38 40 39 39 39 39 39 39 37 35 34 34 34 35 34 34 34 34 35 35 35 35 36 36 38 40 40 40 39 39 39 39 39 39
10 11 11 11 11 12 12 12 13 14 16 20 26 31 34 35 34 36 38 37 35 34 36 37 38 39 39 38 38 39 38 38 39 39 39 38 37 35 34 34 35 36 35 34 34 34 35 36 36 36 37 37 37 39 39 39 39 38 38 39 39 39 39
7 7 8 9 11 11 11 11 10 10 13 20 26 29 29 31 33 34 34 34 34 35 37 38 37 37 37 37 37 38 38 38 39 39 37 36 35 34 35 36 36 36 36 35 35 37 37 37 37 37 38 38 38 38 38 38 38 38 38 39 39 38 39
5 5 7 7 8 10 11 12 14 15 18 22 25 26 27 31 33 32 31 33 35 35 37 36 35 34 34 34 35 36 37 39 39 37 36 34 34 35 36 37 37 37 37 36 37 37 37 36 37 38 38 38 38 38 37 37 37 38 39 39 38 38 39
5 4 5 5 6 7 7 10 15 20 23 24 25 27 30 32 34 32 29 30 32 33 34 33 32 34 34 35 36 37 37 38 37 36 35 34 35 37 38 38 39 38 38 38 37 37 37 37 37 37 38 38 38 38 37 37 37 38 38 37 37 37 37
7 6 5 4 3 2 4 7 11 14 17 21 23 28 31 31 30 28 26 27 29 30 30 30 32 34 36 37 39 39 39 39 37 35 35 36 37 38 38 39 39 39 39 39 38 38 37 37 36 36 38 38 38 38 37 37 38 38 37 37 36 35 35
9 9 9 9 9 8 6 5 7 9 10 13 19 24 25 25 26 25 23 25 28 27 27 29 32 35 36 38 40 40 40 39 38 36 36 38 40 40 40 40 39 39 39 39 38 36 36 36 36 36 37 37 37 38 37 37 38 37 36 35 33 31 33
8 9 8 9 12 13 12 7 3 9 11 14 19 23 22 22 23 22 23 25 25 25 27 32 36 37 39 39 38 37 38 38 39 40 40 41 42 41 40 40 38 37 38 37 36 35 35 36 36 35 35 35 35 36 36 37 36 35 34 32 29 28 30
6 7 8 9 12 14 13 11 6 3 8 11 12 15 20 22 20 20 22 22 21 26 33 39 41 40 40 38 35 35 37 39 41 43 44 43 42 40 40 39 38 38 37 36 35 34 34 34 34 32 32 33 34 34 35 36 35 33 30 27 25 26 29
9 11 12 14 18 19 15 11 10 7 2 2 3 7 14 20 20 19 20 18 21 30 36 37 37 38 37 35 34 35 36 39 41 42 42 41 40 39 39 39 38 37 36 35 34 33 32 30 30 29 27 27 29 31 31 31 31 29 27 25 24 25 28
10 10 12 13 16 19 16 11 9 11 11 8 4 4 10 15 17 16 16 17 23 28 26 23 27 31 30 30 32 34 36 39 39 39 39 38 38 38 37 36 36 35 34 33 31 29 26 26 26 25 23 22 22 24 26 26 26 25 24 23 23 23 25
10 10 10 10 12 16 15 11 10 13 15 15 11 4 5 12 15 13 12 17 22 21 18 18 22 25 26 28 31 34 36 37 38 38 37 36 36 35 32 33 33 32 30 30 28 25 22 21 21 20 17 16 16 17 21 23 24 23 22 22 21 22 24
10 10 10 10 13 16 14 10 10 12 14 17 15 10 3 4 12 15 16 19 21 19 19 19 20 22 26 28 31 33 34 35 36 37 36 35 34 33 32 32 30 28 27 28 28 28 25 23 23 22 19 16 13 15 19 21 22 22 21 20 21 22 23
9 10 10 10 12 15 14 11 11 11 11 14 16 14 11 7 3 8 13 18 20 19 21 22 22 24 27 29 31 33 34 33 33 34 35 36 37 38 37 36 33 32 32 33 32 32 31 30 30 28 27 25 23 21 21 21 21 22 22 21 22 23 23
8 9 10 10 11 13 13 11 11 10 9 11 14 14 12 11 9 8 7 10 13 16 20 22 24 26 28 30 33 33 33 33 33 34 36 37 38 38 37 38 38 36 35 35 35 33 33 34 34 31 29 28 28 26 25 24 23 23 23 23 23 23 23
7 7 8 9 11 12 11 9 8 9 9 10 13 14 13 12 11 9 6 6 8 12 16 21 25 26 27 29 30 30 31 33 33 32 32 33 34 34 34 36 38 38 38 39 40 38 35 33 32 31 30 30 31 30 28 26 25 25 25 26 26 26 26
7 7 8 9 10 11 10 9 9 9 9 11 13 14 14 15 14 11 8 6 8 10 12 15 17 19 22 25 27 29 31 33 35 35 34 32 31 32 33 37 39 40 42 44 46 46 45 41 37 35 35 35 36 35 30 27 28 28 27 27 27 28 28
7 8 9 11 10 10 10 10 10 9 9 10 11 12 12 13 13 13 11 7 5 6 7 8 10 13 17 21 25 29 32 33 35 36 37 37 37 35 32 33 35 36 36 37 38 40 43 42 39 38 39 39 38 34 29 28 30 29 27 27 27 27 27
8 8 10 12 11 10 10 11 11 11 10 10 11 11 11 12 13 13 13 11 7 3 1 4 6 9 11 14 18 23 28 30 32 34 35 37 40 40 35 29 25 25 28 32 35 35 35 34 34 35 38 38 35 30 25 24 27 27 26 27 27 27 25
11 11 12 13 13 11 11 11 11 10 11 11 12 12 11 12 14 16 16 16 13 12 12 11 9 8 7 7 7 11 17 21 25 29 33 35 36 37 38 35 29 26 26 28 29 29 29 31 32 34 35 33 31 29 24 21 23 26 27 27 28 27 25
Wind_Direction
201 203 202 203 204 203 204 203 202 201 200 199 199 199 199 199 197 197 197 198 198 198 199 200 201 202 203 206 207 208 209 211 211 212 214 215 218 218 218 217 217 220 220 220 221 222 223 223 222 222 222 222 221 219 217 215 215 218 219 218 220 223 223
202 206 204 202 203 204 206 205 203 203 201 200 200 199 199 199 197 197 198 198 199 199 199 199 200 202 204 206 207 208 209 210 212 212 213 214 216 218 219 219 219 221 222 222 222 223 223 223 222 222 221 220 220 219 218 216 216 218 219 219 220 223 225
204 207 205 203 203 203 206 204 204 204 203 202 199 198 200 200 199 198 197 198 199 200 199 199 201 202 204 205 207 208 209 210 211 212 213 213 214 216 218 220 221 222 223 222 222 223 223 223 222 222 221 220 220 220 219 218 218 219 220 220 221 222 224
205 208 205 204 203 203 206 204 203 204 204 204 201 199 200 201 200 199 198 198 198 199 199 200 201 202 204 205 207 209 209 210 211 212 213 213 214 214 215 219 221 222 222 222 222 222 223 223 223 222 221 220 220 220 221 220 220 220 221 222 223 224 225
206 208 205 205 204 204 207 205 204 204 205 205 203 202 203 202 200 199 200 200 199 199 200 201 201 202 204 205 207 209 210 210 211 212 213 213 213 213 214 218 220 221 222 222 222 223 223 222 222 221 220 219 220 221 222 223 221 222 222 222 225 226 228
207 206 203 204 204 205 206 206 205 204 205 205 203 204 204 201 199 199 200 200 200 201 201 201 202 202 204 206 207 209 210 211 211 211 212 212 212 212 215 218 220 221 222 223 223 223 222 222 222 221 220 219 219 220 221 223 223 223 223 223 226 228 229
205 203 203 204 203 204 206 206 206 205 206 206 204 204 202 198 199 199 200 200 201 200 200 201 203 203 204 206 207 209 210 211 211 212 212 212 212 213 216 218 220 221 223 223 223 222 221 222 222 222 221 219 219 219 220 222 223 224 224 223 226 228 230
205 201 203 203 201 203 205 206 206 205 206 205 203 202 199 198 199 199 199 200 201 200 200 201 202 202 204 206 207 209 210 211 211 211 212 212 212 214 216 218 219 221 222 223 223 222 220 221 221 221 221 219 219 219 220 222 224 224 224 223 225 227 229
206 203 203 202 201 202 204 205 206 204 201 199 199 199 197 197 198 198 199 200 199 200 202 203 202 202 204 205 207 209 210 211 212 211 211 211 212 214 216 218 219 219 221 222 223 222 221 221 221 220 220 219 219 220 220 222 223 224 224 223 224 226 227
208 205 203 202 201 202 205 206 204 201 197 195 197 197 197 197 198 199 199 198 199 202 203 202 201 202 204 205 208 209 209 211 211 211 211 212 212 214 216 217 218 218 219 221 221 221 220 221 220 220 219 218 219 220 221 221 222 223 224 224 224 225 227
211 207 202 202 202 202 205 204 199 196 194 193 195 196 196 198 198 198 197 198 200 202 202 201 200 201 204 206 207 208 209 210 211 211 211 212 213 214 216 216 216 217 218 219 219 220 220 219 219 219 218 219 219 220 221 221 222 222 223 224 225 226 227
214 208 203 202 202 203 205 201 195 195 195 195 195 195 196 197 197 197 197 199 200 200 199 199 199 201 203 205 206 207 209 210 211 211 212 213 213 214 216 216 216 216 216 217 218 219 220 219 219 219 219 220 221 221 221 222 222 223 224 225 225 226 227
209 205 209 207 202 203 202 198 197 196 196 197 196 196 196 195 196 196 197 198 199 199 198 197 198 200 203 204 205 207 209 210 212 212 212 213 214 215 215 216 215 215 215 216 217 217 218 219 220 220 221 222 222 222 223 222 223 224 225 225 225 225 226
207 204 211 212 207 204 199 198 202 199 196 196 195 196 196 196 196 197 197 198 197 196 197 196 197 200 202 203 205 207 209 211 212 213 213 214 214 215 216 216 216 215 215 215 215 217 218 220 221 221 222 222 223 223 223 223 224 225 225 225 225 225 226
215 209 205 203 203 202 200 201 201 197 196 195 193 193 194 195 197 197 197 197 195 195 196 195 196 200 202 203 205 208 209 210 211 213 214 214 213 214 216 216 217 216 214 214 215 216 218 220 221 221 221 222 223 223 223 224 226 226 225 225 225 225 226
218 215 208 203 200 197 199 202 200 197 195 193 191 191 192 194 195 195 196 195 194 195 196 195 196 199 201 203 206 208 208 208 210 211 212 213 213 214 215 216 217 216 215 215 215 216 217 218 220 221 221 222 222 222 223 225 227 228 227 227 226 226 225
221 219 214 210 204 198 198 198 197 196 194 193 193 191 191 194 194 194 195 194 194 196 196 195 197 199 201 205 207 206 205 206 208 209 210 212 213 214 214 214 215 215 215 215 215 215 215 216 218 220 221 222 222 223 224 227 229 229 229 229 229 227 226
225 225 222 214 204 197 198 198 195 193 193 195 194 192 193 193 192 193 194 194 196 197 195 195 198 200 204 206 206 204 204 205 206 207 209 210 211 212 213 213 213 214 215 215 214 214 214 215 217 218 220 221 222 223 226 228 230 230 230 230 230 229 228
221 222 223 217 206 198 197 197 195 195 196 194 192 194 195 192 190 193 195 196 197 195 193 195 199 202 205 206 205 204 204 204 204 206 208 209 209 210 210 210 212 213 214 215 214 213 213 214 216 217 218 219 221 224 227 229 230 230 231 232 231 231 231
238 233 225 213 207 205 201 200 201 201 200 198 197 197 196 193 193 196 197 196 194 192 193 197 200 203 205 205 204 204 204 203 204 206 207 208 207 207 207 209 211 213 214 214 213 212 213 213 214 215 217 218 221 224 227 229 230 230 232 233 233 233 233
251 251 242 220 208 205 201 197 201 205 204 202 201 199 196 196 197 198 197 194 192 193 196 199 201 203 205 204 204 204 203 202 205 206 206 205 204 204 206 208 210 211 212 212 212 213 213 213 213 214 216 218 221 223 226 228 229 231 232 233 234 235 234
257 236 239 236 223 214 206 197 194 197 200 201 198 195 195 198 199 198 196 194 193 194 197 199 201 203 204 204 205 205 203 203 204 205 204 202 202 203 205 207 209 210 210 211 212 213 213 213 213 214 215 218 220 222 226 228 230 232 233 234 235 235 233
304 270 242 240 236 234 241 230 211 199 194 193 193 195 197 199 199 197 194 192 193 195 197 198 201 202 203 204 205 205 206 205 204 203 201 200 201 203 205 207 208 209 209 209 210 211 212 212 213 213 215 217 218 221 224 227 230 232 233 234 235 233 230
345 355 352 336 310 271 270 256 235 217 202 194 195 199 200 198 197 195 192 191 192 194 196 199 203 204 203 204 204 204 205 205 205 203 200 199 202 205 206 207 208 208 208 209 209 210 211 211 212 214 215 216 217 219 221 225 229 231 232 234 234 230 227
1 8 6 9 10 355 326 275 228 216 207 203 206 207 202 198 196 193 192 192 191 192 195 201 205 206 205 206 206 204 204 203 203 202 201 202 204 206 206 207 208 208 208 209 209 210 211 211 212 214 215 216 217 219 220 224 228 230 231 232 230 227 226
0 1 0 7 7 358 351 345 239 196 193 203 212 210 202 197 195 194 196 194 190 191 198 204 206 207 209 209 207 205 204 202 202 203 203 204 205 206 207 208 208 207 208 208 209 209 210 211 212 213 214 215 216 218 220 223 227 229 229 228 226 223 222
360 7 9 7 5 5 8 11 6 228 211 216 218 210 201 195 193 199 202 197 193 198 204 206 207 208 209 209 206 205 205 203 203 204 205 206 205 204 206 207 206 206 206 206 206 207 209 210 210 211 213 213 214 217 220 222 226 227 224 221 220 219 217
11 11 10 9 9 9 10 14 23 29 13 243 218 206 199 194 196 203 204 201 206 211 211 210 209 209 208 207 205 205 205 205 206 206 207 207 205 203 204 205 205 205 205 203 203 204 205 205 205 205 207 209 211 214 217 219 223 224 219 213 212 212 214
17 12 10 10 9 8 6 6 15 23 29 42 74 171 189 191 199 206 204 207 218 222 223 220 215 212 209 206 204 205 205 206 207 207 207 207 204 203 203 202 202 203 202 200 199 198 196 195 195 194 192 193 198 204 208 211 214 214 211 207 205 208 212
17 14 14 13 9 9 12 13 5 5 15 27 37 59 177 191 197 200 205 218 223 225 228 228 220 213 209 206 205 206 206 206 206 206 207 206 204 202 201 199 199 199 196 193 189 182 177 176 175 171 166 165 174 187 195 199 201 202 202 202 203 205 209
23 19 14 12 11 12 15 21 15 8 9 15 19 20 10 215 199 196 206 218 220 217 217 219 216 211 209 207 207 208 206 205 205 205 204 203 200 199 198 196 192 186 181 179 175 166 158 152 150 148 146 151 167 182 187 190 192 192 194 198 202 204 205
26 24 22 20 15 12 14 20 21 18 13 8 9 10 5 348 276 226 223 218 212 212 212 210 207 207 208 207 208 208 205 203 202 201 200 199 198 197 195 191 185 177 173 170 167 161 155 151 152 158 165 173 182 185 183 183 187 188 188 192 197 198 199
24 22 26 25 20 16 18 23 23 19 14 6 3 4 3 360 352 329 283 235 218 215 211 205 201 202 203 204 205 205 202 198 196 196 195 195 194 193 190 186 181 175 171 168 165 162 161 162 165 171 174 174 176 177 175 175 179 184 186 187 187 188 191
32 30 33 29 26 25 24 24 23 18 13 5 359 358 1 4 1 349 325 277 247 229 215 205 200 198 197 197 197 196 193 191 190 188 187 188 187 184 181 179 178 174 174 175 173 168 168 171 174 176 175 171 170 169 166 170 179 188 191 190 186 183 184
36 36 36 33 34 35 31 26 24 21 16 8 3 2 5 8 6 359 344 303 260 238 223 211 201 193 188 184 182 182 182 183 182 181 179 176 176 175 175 177 179 178 179 182 182 180 179 178 178 180 178 173 170 167 163 170 187 195 196 193 188 183 182
36 35 31 31 36 41 40 37 33 29 23 14 13 17 19 20 21 16 5 343 298 262 237 209 189 181 180 178 177 178 179 179 180 179 175 170 167 166 167 172 178 181 180 178 180 184 186 183 181 182 179 173 172 174 177 186 193 194 191 190 187 184 184
36 35 29 28 30 34 37 36 32 27 20 13 17 25 30 35 41 42 40 39 34 22 150 170 173 182 191 195 193 187 182 180 180 177 174 171 169 165 156 149 153 162 166 170 175 182 187 188 187 186 183 177 172 171 177 189 192 187 185 185 184 182 183
39 40 35 31 29 27 26 28 28 25 21 18 20 23 29 38 45 50 55 58 63 68 68 60 50 38 11 335 290 232 203 190 186 182 176 172 171 166 156 143 132 126 134 152 167 175 180 185 184 183 184 183 174 165 165 177 183 181 181 183 182 181 183
Height
694 695 696 698 700 702 703 703 704 706 709 712 715 719 723 727 730 734 737 741 744 747 750 753 756 759 761 763 765 768 771 773 776 778 781 784 786 789 791 793 794 795 795 796 797 799 801 803 806 807 809 811 812 814 816 817 819 820 821 823 824 825 825
691 692 692 693 695 697 698 698 700 702 705 707 710 715 718 722 725 729 732 736 739 742 745 748 751 754 756 759 762 764 767 770 772 775 777 780 783 786 788 790 791 792 793 794 795 797 799 801 803 805 807 809 810 812 814 816 817 819 820 821 822 823 824
688 687 686 687 689 691 692 693 696 698 700 703 706 710 713 716 719 722 726 731 735 739 742 745 747 749 752 755 758 760 763 766 768 771 773 776 778 781 784 787 788 789 791 792 793 795 797 799 801 803 804 806 808 810 812 814 816 817 818 819 820 821 822
681 679 679 681 682 685 687 688 691 693 695 698 700 704 706 709 713 717 722 725 729 734 737 740 743 746 749 751 754 756 758 761 764 767 770 772 775 778 781 783 785 787 788 789 791 793 794 797 798 800 802 804 806 808 810 812 814 815 816 818 819 819 820
675 674 676 679 680 682 682 683 686 688 690 693 696 699 700 704 710 714 718 721 724 728 730 734 738 741 744 746 749 751 754 757 760 763 766 769 772 774 776 778 781 783 785 787 789 790 792 794 795 797 800 801 804 806 808 810 812 813 815 815 817 817 818
670 671 673 674 675 676 677 678 679 681 685 688 690 694 697 702 708 711 714 718 721 725 728 732 735 737 740 742 745 748 751 754 756 759 762 765 768 770 772 774 777 779 782 784 786 787 789 791 793 795 797 799 801 803 805 808 809 811 812 813 814 815 817
664 665 666 667 667 669 671 672 673 676 679 682 686 690 694 700 704 707 711 715 717 722 725 729 731 734 736 739 742 745 747 750 753 756 760 762 764 766 768 770 772 775 779 781 783 785 786 788 790 792 794 796 799 801 803 805 806 808 810 811 813 814 816
656 657 659 660 661 663 665 666 669 671 675 680 684 688 693 696 700 703 707 710 714 718 721 723 726 729 732 735 739 741 743 747 750 753 756 759 761 762 764 766 768 772 775 778 780 782 784 785 787 790 792 794 796 799 801 802 804 806 808 810 811 813 815
650 651 652 653 655 657 659 661 663 666 671 677 681 684 688 691 695 698 701 705 710 713 715 718 722 725 729 732 734 737 741 744 747 749 752 755 757 758 760 762 764 768 771 774 777 779 781 783 785 787 789 792 794 796 798 800 802 804 806 808 809 811 812
647 649 648 650 651 653 655 656 659 664 669 673 676 680 683 686 689 693 696 701 705 707 710 714 719 723 726 728 730 734 737 740 743 746 748 750 752 754 756 758 761 764 767 770 774 777 779 781 783 785 787 789 791 793 795 797 800 802 804 805 807 808 809
645 646 647 649 650 651 653 655 659 663 666 668 671 674 678 681 684 688 692 696 699 702 707 711 715 719 722 724 728 731 733 736 739 741 743 745 747 750 752 755 758 760 763 767 771 774 777 779 781 783 785 786 788 790 792 795 798 799 801 802 804 805 806
644 645 646 647 648 648 650 652 656 659 660 663 666 669 672 676 679 683 687 690 694 698 703 707 711 715 718 721 724 727 729 732 734 736 738 741 743 746 749 752 755 757 760 764 767 771 774 777 779 780 782 784 786 788 790 793 795 797 798 800 801 802 804
640 642 643 643 643 645 647 650 652 654 655 658 660 663 667 670 674 678 682 685 689 694 698 702 706 710 713 716 719 722 725 726 728 731 734 737 740 744 747 750 752 754 757 761 764 768 771 773 776 778 780 782 784 786 788 791 793 794 795 796 798 799 800
637 638 640 641 643 644 646 648 649 649 651 653 656 660 663 666 670 673 676 680 685 690 694 698 702 705 708 711 714 717 718 721 724 727 731 734 738 742 745 748 750 752 755 758 761 764 767 770 773 776 778 780 782 784 786 788 789 790 791 793 794 796 798
636 636 636 638 641 643 643 644 644 646 648 649 652 656 659 663 666 669 673 677 681 686 689 692 697 700 703 706 708 710 712 717 721 724 728 732 736 739 742 745 748 751 753 756 758 760 764 767 771 774 776 778 779 781 783 784 785 785 787 789 791 793 795
635 633 633 633 634 635 637 637 638 640 643 645 648 651 654 658 661 665 669 673 677 681 683 688 692 694 698 700 701 704 708 713 717 721 725 729 732 736 739 742 746 749 751 753 755 758 761 765 768 770 772 774 776 778 779 779 780 781 783 786 788 791 793
632 630 629 628 628 630 631 632 634 636 639 642 643 645 649 652 656 660 664 668 672 675 678 683 686 689 692 693 694 700 705 709 713 717 721 725 728 732 736 740 744 747 749 751 753 756 758 761 764 766 768 770 772 774 774 775 776 777 780 783 785 788 789
628 627 625 624 625 627 628 629 631 633 635 636 638 641 644 647 652 656 660 663 666 669 674 679 681 684 686 687 692 697 700 704 708 712 716 720 724 728 733 737 741 744 746 748 750 752 754 756 758 761 763 766 767 769 770 770 772 774 777 779 782 784 786
623 622 621 620 622 623 625 625 626 627 628 629 632 635 638 641 646 650 653 657 660 666 671 675 677 680 682 685 690 693 696 700 704 708 711 715 719 724 729 734 737 740 742 744 746 748 750 751 753 755 758 760 762 764 765 766 768 771 773 776 778 780 782
622 619 617 617 618 619 620 621 622 622 623 625 627 629 633 637 640 643 647 652 658 663 667 670 672 675 677 681 686 689 692 697 700 703 707 711 716 721 726 729 732 735 738 740 742 743 744 745 748 750 752 755 756 758 760 762 764 767 769 772 774 776 778
622 620 618 616 615 615 617 618 621 622 622 623 625 628 632 635 637 641 646 650 655 659 662 664 668 670 674 678 681 685 689 692 695 699 703 708 713 717 720 723 726 730 732 734 736 737 738 740 742 744 747 749 751 754 756 758 761 763 766 768 770 773 774
620 619 617 615 614 612 611 611 613 615 617 620 623 626 629 632 635 639 643 646 650 653 656 660 664 667 671 675 678 682 685 687 691 695 700 705 709 712 714 717 720 723 726 728 730 731 733 735 737 739 742 744 747 750 751 754 757 759 761 764 766 769 771
620 617 614 613 613 611 610 609 608 609 612 616 620 622 624 627 632 636 640 643 646 650 653 657 660 662 666 669 673 677 681 684 687 691 696 701 704 706 708 711 713 717 719 722 723 725 727 729 732 734 737 740 743 745 747 750 753 755 757 760 763 765 767
618 616 614 612 611 610 609 611 612 613 614 616 618 619 621 625 630 634 638 641 643 647 651 653 655 657 660 663 666 670 675 680 684 688 692 695 697 700 702 705 708 710 713 715 717 719 722 725 728 731 733 735 738 740 743 746 748 751 753 756 759 762 764
618 617 615 613 613 612 610 610 612 615 617 618 618 619 622 626 630 633 636 637 640 643 646 648 650 652 655 657 660 664 669 674 679 684 687 689 690 693 696 699 702 705 707 710 713 716 720 723 725 727 729 732 734 737 740 742 744 747 750 753 756 759 762
622 621 618 616 615 614 611 610 610 612 614 615 615 617 621 625 628 631 632 634 637 639 640 641 643 647 650 653 657 662 666 670 674 677 680 682 684 687 691 694 697 701 704 706 709 713 716 719 721 723 726 729 731 734 737 739 741 744 747 750 754 756 759
623 621 620 619 617 615 613 611 611 611 612 613 615 617 620 623 626 628 630 632 634 633 632 633 637 640 645 649 655 659 662 665 668 670 672 675 678 682 686 689 692 696 699 702 706 710 712 715 718 721 724 726 728 731 733 736 738 741 745 748 751 754 756
623 621 619 617 616 614 613 612 613 613 614 614 616 617 619 622 624 625 628 631 631 628 627 630 633 637 641 645 650 655 658 661 664 666 669 672 675 678 681 684 688 691 695 699 702 706 709 713 716 719 722 724 727 729 731 734 737 740 743 746 748 751 753
626 625 622 620 619 617 616 614 614 614 615 615 615 616 618 620 622 624 626 628 627 628 630 632 634 636 639 643 647 650 653 657 660 663 666 669 671 674 677 680 684 688 691 696 700 704 708 712 715 718 721 723 726 728 731 733 736 739 742 744 746 749 751
629 628 626 624 624 622 621 619 617 616 616 616 616 617 617 618 620 622 624 624 625 627 630 632 634 636 638 641 643 645 648 651 655 659 663 666 669 673 676 679 682 685 689 693 697 702 706 710 713 717 720 724 727 729 730 733 735 738 740 742 745 747 749
632 631 629 627 626 625 624 624 623 621 620 619 619 619 619 619 619 620 620 620 622 625 627 629 632 634 635 637 639 642 644 647 651 654 657 662 666 669 673 676 679 682 686 689 693 696 700 705 709 713 717 722 727 730 731 732 735 737 739 742 744 745 747
635 633 632 631 629 628 628 627 627 626 625 624 623 622 622 622 622 621 620 620 621 622 623 625 627 629 632 634 636 638 641 643 646 649 652 654 657 660 664 668 672 676 679 682 686 690 693 697 701 705 708 712 718 724 727 730 733 736 738 740 742 744 746
639 636 635 634 632 632 631 630 630 629 629 628 626 625 625 624 624 625 624 624 623 623 622 623 623 625 627 628 630 633 635 638 640 642 644 646 648 651 655 659 664 668 672 675 679 683 687 690 693 697 700 704 711 716 720 725 730 734 736 738 740 742 745
643 640 638 636 635 634 634 633 633 633 632 630 629 628 627 626 626 626 626 626 626 626 624 623 622 622 622 623 625 628 630 632 634 637 639 642 645 647 650 653 657 661 664 667 670 673 679 683 686 690 694 698 704 709 714 719 725 729 732 735 737 740 743
644 643 641 639 638 637 637 637 637 636 635 634 632 631 629 628 627 626 626 626 626 626 626 625 623 623 623 622 623 623 624 626 628 630 633 637 641 644 646 648 651 653 656 659 662 664 667 671 677 683 687 692 697 701 706 713 719 724 729 733 736 739 742
645 644 643 642 641 640 639 639 639 639 638 637 635 634 633 631 630 629 628 627 627 626 626 626 625 625 624 623 622 621 621 622 622 623 625 627 631 636 641 644 647 649 652 656 663 667 668 669 674 680 683 687 692 696 700 706 714 722 728 733 736 740 743
646 646 645 644 642 641 640 639 639 639 639 638 637 636 635 634 633 632 631 630 629 629 629 629 629 628 628 627 625 622 621 620 620 619 620 621 622 625 631 638 644 648 651 657 664 671 675 677 681 685 687 688 689 692 697 705 714 722 728 733 736 740 743
649 648 648 646 644 643 642 640 640 639 639 638 637 637 636 635 634 634 632 631 630 630 631 632 633 633 634 635 634 631 627 623 621 619 618 617 618 620 623 629 637 644 651 658 666 672 677 681 684 688 692 691 687 687 695 706 715 722 727 732 736 739 743